Showing default

KINEIS-1E, 60083

Orbit data source: Space-Track

KINEIS-1E, 60083 is a French payload satellite in SSO that was launched on Thu, 20 Jun 2024 UTC via an ELECTRON launch vehicle from the Rocket Lab Launch Complex (RLLC). Payload-class satellites include a variety of spacecraft equipped with specific instruments for various scientific and technological missions. These include communications satellites like Starlink; space stations such as the ISS; scientific satellites like the Hubble; Earth observation satellites from companies like Planet Labs, Umbra, and HawkEye 360; GPS; miniature CubeSats for education and research; and military/defense satellites.

Loading next visibility...
Identifier
60083, 2024-114E
Orbit
SSO
Last TLE update
9 hours ago
Origin
Manufacturer
KINEIS
Mission
Operational Commercial Communications
Bus & Motor
CUBESAT 16U, Unknown motor
Mass
28 kg wet, 28 kg dry
Launch date (UTC)
2024-06-20 (1 year ago)
Launch vehicle
ELECTRON
Launch site
Rocket Lab Launch Complex (RLLC)
Object type
Payload
Rocket body
Debris
Shape & HBR
Box + 2 Pan + 1 Ant, 1.6 m
Radar Cross Section
0.229 m², Medium (>0.1 m² and < 1m²)

Expand to show TLE details & history

TLE from 9 hours ago
0 KINEIS-1E
1 60083U 24114E   25182.86097746  .00001018  00000-0  14278-3 0  9999
2 60083  98.0085 203.2853 0002169 121.4579 238.6844 14.79623180 55566
Epoch: 2025-07-01T20:39Z
TLE epoch observation values (Epoch: 2025-07-01T20:39:48.452Z)
Latitude
-0.00009°
Longitude
-26.81693°
Altitude
634.322 km
Speed
7.541 km/s
True Right ascension
13h 33m 08s
True Declination
0° 00' 00"
Sunlit
Object was in daylight at epoch
Visualization orbit readout
Latitude
-63.9598°
Longitude
-9.78268°
Altitude
656.471 km
Speed
7.527 km/s
Apparent Right ascension
08h 24m 26s
Apparent Declination
-70° 58' 14"
Sunlit
Object is in full shadow
Visualization observer readout
Local Sidereal Time
17:48:10
Azimuth
200.064° SSW
Elevation
-53.202°
Doppler factor
1
Orbital elements
Apogee altitude
629.08 km
Perigee altitude
626.041 km
Semi-major axis
7,005.697 km
Eccentricity
0.00022
Inclination
98.0085°
RAAN
203.2853°
Arg. of periapsis
121.4579°
True anomaly
Unknown
Mean anomaly
238.6844°
Eccentric anomaly
Unknown
Mean motion
3.7014 °/min
Orbital period
97.26 mins
BSTAR
0.00014278
Loading maneuver chart data...
Loading SW <> Apogee altitude chart data...
Loading historical data...
Loading historical data...
Loading historical data...
Loading historical data...
Loading historical data...
Loading historical data...
Loading historical data...

KINEIS-1E Visibility forecast

Observer location: undefined°, undefined°

Span
Click to sort rows by Start time (UTC) header in descending order
Start Az.
Max El. time (UTC)
Max El. Az.
Max El.
End time (UTC)
End Az.
6 mins2025-07-02 13:28:29.339Z41.828° NE2025-07-02 13:31:29.339Z89.43° E23.337°2025-07-02 13:34:29.339Z144.382° SSE
6 mins2025-07-02 15:05:29.339Z337.622° N2025-07-02 15:07:29.339Z303.01° NW23.692°2025-07-02 15:11:29.339Z235.199° WSW
4 mins2025-07-03 00:25:29.339Z96.556° ESE2025-07-03 00:27:29.339Z59.981° ENE19.402°2025-07-03 00:29:29.339Z27.843° NE
6 mins2025-07-03 02:00:29.339Z206.63° SW2025-07-03 02:03:29.339Z270.884° WNW28.904°2025-07-03 02:06:29.339Z323.372° NNW
|